Regional Weather Roundup
Issued by NWS

Home | Current Version | Previous Version | Graphics & Text | Print | Product List | Glossary Off
Versions: 1 2 3 4 5 6 7 8 9 10 11 12 13 14 15 16 17 18 19 20 21 22 23 24 25 26 27 28 29 30 31 32 33 34 35 36 37 38 39 40 41 42 43 44 45 46 47 48 49 50

000
ASUS43 KTOP 250359
RWRKS

WEATHER ROUNDUP FOR KANSAS
NATIONAL WEATHER SERVICE GOODLAND KS
1100 PM CDT SAT SEP 24 2016

NOTE:  "FAIR" INDICATES FEW OR NO CLOUDS BELOW 12,000 FEET WITH NO
SIGNIFICANT WEATHER AND/OR OBSTRUCTIONS TO VISIBILITY.

KSZ001>006-013>018-027>032-041>047-250500-
NORTHWEST KANSAS

CITY           SKY/WX    TMP DP  RH WIND       PRES   REMARKS
GOODLAND       CLOUDY    55  40  56 CALM      30.09R
HAYS           CLOUDY    66  57  72 CALM      30.01R
HILL CITY      CLOUDY    55  52  89 CALM      30.02R
RUSSELL        TSTM      69  67  93 S7        30.00R
$$

KSZ061>065-074>080-084>089-250500-
SOUTHWEST KANSAS

CITY           SKY/WX    TMP DP  RH WIND       PRES   REMARKS
DODGE CITY     CLEAR     62  60  93 SW3       30.02R
ELKHART          N/A     59  37  44 NE5         N/A
GARDEN CITY    CLEAR     63  49  60 NE8       30.03R
GREAT BEND     MOCLDY    68  61  77 SE9       30.00F THUNDER
LIBERAL        CLEAR     61  43  51 N7        30.03R
$$

KSZ066>073-081>083-090>101-250500-
SOUTHEAST KANSAS

CITY           SKY/WX    TMP DP  RH WIND       PRES   REMARKS
CHANUTE        LGT RAIN  69  66  90 NW8       30.02F
COFFEYVILLE    CLOUDY    71  67  87 W9        30.05R
HUTCHINSON     CLOUDY    68  67  96 CALM      30.00R
MEDICINE LODGE   N/A     66  64  93 SE6         N/A
NEWTON         LGT RAIN N/A N/A N/A SW5       30.01R
PARSONS        CLOUDY    71  66  84 NW6       30.04R
WICHITA INTL   CLOUDY    67  67 100 SE8       29.97R
WICHITA JABRA  RAIN      67  66  97 S10       29.98R
WICHITA MCCONL MOCLDY    67  65  95 SW7       29.99R
WINFIELD       RAIN      67  67 100 S9        30.02R
$$

KSZ007>012-019>026-033>040-048>060-102>105-250500-
NORTHEAST KANSAS

CITY           SKY/WX    TMP DP  RH WIND       PRES   REMARKS
CONCORDIA      CLOUDY    68  68 100 SE8       29.98R
EMPORIA        LGT RAIN  67  66  97 SE9       30.00S
LAWRENCE       TSTM      70  68  93 W17       30.03R FOG
MANHATTAN      CLOUDY    69  68  96 W7        29.99R
OLATHE IND     CLOUDY    72  68  87 NE6       29.99F
OLATHE EXE     CLOUDY    75  68  78 N3        29.99S
SALINA         CLOUDY    70  68  93 CALM      29.99S
TOPEKA BILLARD RAIN      68  67  96 CALM      30.02F FOG
TOPEKA FORBES    N/A    N/A N/A N/A MISG      29.98F THUNDER
$$



USA.gov is the U.S. government's official web portal to all federal, state and local government web resources and services.